Temperature
26 23 22 23 24 24 25 25 25 26 27 25 23 23 22 22 22 21 20 20 19 19 19 19 19 19 18 18 18 18 18 18 18 18 18 18 17 17 17 17 17 17 17 16
23 22 25 26 26 27 26 26 25 25 26 24 23 22 22 21 21 21 20 20 19 19 18 18 18 18 18 18 18 18 18 18 18 18 18 18 17 17 17 17 17 17 16 16
23 24 26 27 27 27 27 26 26 25 24 23 23 21 21 20 21 21 21 20 19 19 18 18 18 17 17 18 18 17 18 18 18 18 18 17 17 17 17 17 17 17 16 16
24 26 27 27 27 27 26 27 27 26 23 20 21 20 20 19 19 20 20 19 19 19 18 18 18 17 17 17 17 18 17 17 17 17 18 18 17 17 17 17 17 16 16 16
24 26 26 26 27 28 27 27 26 24 21 19 19 19 19 19 19 19 19 19 19 19 19 18 18 18 18 17 17 17 17 17 17 17 18 18 17 17 17 17 16 16 16 16
25 26 26 27 28 28 27 25 22 19 18 19 19 19 18 18 19 19 19 20 19 19 18 18 18 18 17 17 17 17 17 17 17 17 17 17 17 17 17 17 16 16 16 16
24 25 27 27 26 26 26 23 21 21 19 19 18 19 18 19 20 20 19 19 20 19 19 18 18 17 17 17 17 17 17 17 17 17 17 17 17 17 17 17 16 16 16 16
22 23 25 27 26 25 25 23 21 21 20 18 18 18 19 20 20 20 20 20 19 19 19 19 18 18 18 17 17 17 17 17 17 17 17 17 17 17 17 17 16 16 16 16
22 23 26 28 28 27 25 23 22 20 20 18 18 18 19 20 20 20 20 20 19 19 19 19 19 18 18 18 17 17 17 17 17 17 17 17 17 17 17 17 16 16 16 16
23 23 25 27 27 26 25 24 21 20 20 20 19 19 18 20 19 20 19 19 19 19 19 19 19 19 18 18 18 18 17 17 17 17 17 17 17 17 17 17 17 17 16 16
23 22 23 25 25 25 24 23 21 19 19 19 18 19 20 19 19 19 19 20 20 20 20 20 19 19 19 18 18 18 18 18 17 17 17 17 17 17 17 17 17 17 17 16
23 21 21 22 24 25 24 22 20 20 20 19 18 19 21 20 19 19 20 20 20 21 20 20 20 19 19 19 18 18 18 18 18 18 18 17 17 17 17 17 17 17 17 17
23 20 21 22 22 23 23 22 20 19 18 18 19 20 20 19 19 20 20 21 21 21 21 20 20 19 19 19 19 18 18 18 18 18 18 17 17 17 18 18 17 17 17 17
22 20 20 21 21 21 22 23 22 19 18 19 20 20 20 19 18 19 20 21 20 20 20 20 20 20 20 19 19 19 19 19 18 18 18 18 18 18 18 18 17 17 17 17
20 19 20 21 22 22 23 23 23 21 20 20 20 20 19 19 19 19 20 20 20 19 19 20 20 20 20 19 19 19 19 19 19 18 18 18 18 18 18 18 17 17 17 17
17 19 19 20 22 22 23 23 24 23 22 21 21 20 19 19 19 19 19 19 19 18 19 19 19 19 19 19 19 19 19 19 18 18 18 18 18 18 17 17 17 17 17 17
17 18 19 19 20 21 21 22 22 23 22 21 20 19 18 18 18 17 18 18 18 18 18 18 19 19 19 19 19 19 19 19 18 18 18 18 17 17 17 17 17 17 16 16
17 17 16 17 19 20 20 20 22 22 21 20 20 19 18 17 17 17 17 18 17 17 17 17 18 18 18 18 18 18 18 18 17 17 17 17 16 16 16 16 16 16 16 15
16 16 16 16 17 18 20 19 19 19 19 19 18 17 17 16 16 15 16 17 16 16 16 16 17 17 17 17 17 17 17 16 16 16 16 16 16 15 15 15 15 15 15 14
15 15 15 16 17 18 18 18 18 19 18 18 17 17 16 16 15 14 14 15 15 15 15 15 15 16 16 15 16 16 15 15 15 15 15 14 14 14 14 14 14 14 14 14
15 15 15 15 16 17 17 17 18 18 18 17 17 16 16 15 15 14 14 14 15 15 14 15 15 15 15 15 15 15 14 14 13 13 14 13 13 13 13 13 13 13 13 13
14 15 15 15 15 16 16 16 17 16 16 17 16 16 16 15 14 14 14 13 14 14 14 14 14 14 14 14 15 14 13 13 13 13 13 13 13 12 12 12 12 12 12 12
13 14 13 14 15 15 15 15 16 17 16 16 16 15 15 14 13 13 13 13 13 13 13 14 14 13 13 13 13 13 12 12 12 12 12 12 12 12 12 11 11 11 11 11
14 13 13 13 14 14 15 15 16 17 16 16 16 15 14 13 13 13 13 13 13 13 13 13 13 13 12 12 12 12 12 11 11 11 11 11 11 11 11 11 11 11 10 10
14 13 14 14 14 14 14 15 15 16 16 15 15 15 15 14 13 13 13 13 13 13 13 13 12 12 12 11 11 11 11 11 11 11 11 11 10 10 10 10 10 10 10 10
13 13 14 14 14 13 14 15 15 15 14 14 14 14 13 13 13 13 13 12 12 12 12 12 12 12 11 11 11 11 11 11 10 10 10 10 10 10 10 10 10 9 9 9
Wind_Speed
4 1 8 11 10 12 11 11 11 7 2 3 2 3 6 7 6 7 7 8 9 8 8 9 11 10 10 9 10 11 11 10 10 8 8 7 6 5 4 4 8 8 8 8
5 10 16 13 15 14 13 10 7 3 4 4 1 1 2 4 5 6 8 8 9 8 8 9 10 9 10 11 10 10 10 10 9 8 6 5 6 4 4 3 5 7 8 7
11 13 11 13 15 12 11 7 4 2 3 6 3 3 2 2 1 2 6 8 8 10 12 11 11 10 10 11 12 12 10 10 9 8 7 7 5 4 3 3 3 4 8 7
10 14 14 15 16 11 10 7 2 3 4 3 4 2 5 3 4 2 4 5 8 8 10 11 12 12 12 11 10 10 9 9 9 9 10 10 7 6 5 5 4 3 6 7
9 8 9 12 13 10 9 5 2 4 5 3 5 2 6 4 4 5 5 6 8 9 11 12 12 12 11 11 11 10 10 9 8 9 10 9 7 5 4 4 5 4 3 5
14 13 9 11 14 10 6 3 6 6 6 3 2 1 6 4 6 5 4 6 9 10 11 11 10 10 9 9 10 10 10 9 8 9 9 9 9 8 8 6 6 4 3 3
11 14 12 10 11 12 4 3 5 6 4 2 2 1 8 8 7 5 6 7 9 10 11 11 11 11 10 11 11 10 11 10 9 9 8 8 8 9 10 8 7 6 4 4
8 10 8 6 8 8 6 6 6 4 4 2 2 5 8 7 5 5 5 7 9 10 11 12 12 11 12 12 11 11 12 10 9 9 8 7 8 6 6 7 7 7 6 6
9 9 8 8 6 5 3 4 7 7 3 3 4 5 8 3 2 2 3 6 9 11 12 12 12 11 12 13 12 12 11 10 9 9 8 7 7 7 7 7 7 6 6 6
10 7 9 7 3 3 5 5 5 5 4 2 3 4 5 5 6 4 4 6 7 9 11 12 12 12 12 12 11 11 11 11 9 9 9 8 7 7 7 6 7 7 6 6
8 8 8 4 4 7 2 2 4 4 6 6 4 7 7 10 9 8 7 8 9 11 12 12 12 11 11 10 11 11 11 10 10 10 9 8 7 7 7 6 7 7 6 7
4 7 6 8 6 4 6 7 7 5 3 4 5 7 6 9 8 8 8 7 8 10 11 11 11 11 11 11 11 11 11 11 10 10 9 8 8 7 7 7 7 7 7 7
2 4 0 6 6 4 2 3 5 7 5 5 5 6 2 4 4 6 6 6 6 7 8 9 9 10 11 11 11 11 11 11 10 9 8 8 7 7 7 7 7 6 7 7
2 3 6 9 9 5 4 4 5 6 5 5 7 7 4 6 6 5 4 5 5 5 7 8 9 10 10 10 10 10 10 10 10 9 9 8 8 8 7 7 7 7 7 7
4 1 2 5 4 3 5 7 7 6 8 8 8 9 10 11 10 7 5 5 6 5 6 7 8 8 8 8 8 8 8 7 8 8 8 8 7 6 6 6 6 6 6 7
3 1 3 4 3 3 4 6 7 6 6 6 7 5 5 6 5 4 5 7 7 6 7 7 7 8 8 8 8 7 7 6 6 6 5 3 3 3 3 3 3 3 3 4
0 1 2 4 5 3 4 4 4 4 4 8 8 8 8 7 8 7 7 8 8 8 8 8 7 7 7 7 8 9 8 8 8 7 5 5 4 3 2 2 2 1 0 0
3 2 2 2 1 5 6 4 3 1 1 3 6 9 11 10 8 7 7 10 10 10 10 9 8 9 8 8 9 9 9 10 10 9 7 7 6 5 6 5 4 3 2 3
4 5 3 3 3 5 4 3 2 1 2 3 10 13 13 14 13 10 8 10 12 12 11 10 10 11 11 10 11 13 12 11 11 10 8 7 7 8 7 6 5 4 4 5
4 3 4 3 4 6 4 3 4 3 1 2 10 14 13 9 6 5 7 12 14 13 12 12 12 13 13 10 11 14 12 11 10 8 8 7 7 7 7 5 4 4 5 5
3 2 2 4 5 5 3 5 2 3 6 5 7 11 9 5 7 11 12 12 13 13 12 13 13 13 11 9 12 14 12 10 7 7 8 8 7 7 6 5 5 6 6 7
2 2 3 3 4 6 3 1 2 3 2 4 6 9 12 15 17 15 13 13 13 13 12 12 14 12 10 9 13 14 11 7 7 8 8 6 5 5 6 6 5 5 6 7
3 4 3 3 4 3 2 2 2 3 4 4 8 12 16 17 17 16 13 12 12 13 12 11 13 13 10 9 10 12 7 7 8 8 7 6 5 5 4 5 5 4 4 4
3 2 1 1 3 3 3 3 2 1 4 7 12 16 17 17 17 16 14 12 11 11 11 10 12 12 9 8 9 8 7 7 8 7 6 5 6 5 5 4 3 3 2 3
4 2 2 2 2 2 4 2 2 6 10 12 14 16 17 19 18 16 14 12 11 10 9 9 10 10 9 8 7 6 7 8 8 7 6 6 5 5 4 4 2 2 1 2
2 3 4 4 3 3 1 2 6 12 14 15 17 16 14 15 15 15 13 11 11 10 9 9 9 9 8 7 6 5 6 7 7 6 5 4 4 4 4 4 5 7 6 8
Wind_Direction
272 241 251 249 233 234 260 271 278 284 280 115 164 190 185 181 162 168 172 175 176 179 175 166 167 168 159 158 160 157 154 152 145 139 135 133 135 141 132 136 135 124 113 104
310 268 256 265 269 268 269 274 277 314 35 95 142 193 182 176 178 183 182 182 178 166 165 168 166 168 167 165 162 154 156 155 153 148 144 141 140 146 142 134 134 131 121 117
235 255 275 282 283 285 280 257 243 221 63 41 47 2 340 334 303 202 193 179 167 171 168 168 169 173 172 172 168 165 162 159 155 146 129 121 106 98 100 124 139 144 133 124
246 259 269 276 280 280 282 272 212 129 84 6 28 325 300 316 319 269 214 181 172 173 169 169 170 174 177 177 169 163 163 161 158 149 143 147 148 154 175 171 166 159 150 141
246 261 276 278 276 287 272 277 105 100 105 68 23 66 302 341 305 280 236 198 179 174 173 172 172 174 175 171 167 165 163 166 166 157 154 153 150 158 156 151 153 158 158 159
248 262 261 266 281 286 278 30 55 57 72 48 313 94 287 268 255 275 241 205 183 175 170 166 163 165 168 166 164 166 165 170 172 163 157 156 156 157 152 158 168 175 175 170
268 272 266 263 279 298 329 65 17 356 13 259 240 208 252 256 251 252 241 207 182 173 165 164 167 169 170 170 169 170 170 176 177 168 164 164 164 163 166 170 177 178 183 189
232 272 257 240 220 232 252 159 173 215 225 215 265 241 257 261 247 239 213 181 169 170 171 174 176 175 172 173 174 174 177 180 178 172 173 171 167 165 172 175 177 186 194 199
206 243 253 240 238 202 221 225 178 150 133 128 246 277 297 272 267 230 165 162 172 176 178 177 176 176 175 176 179 178 178 181 180 179 176 177 176 172 176 179 180 190 200 202
187 236 270 260 280 305 176 169 95 113 145 192 237 250 245 240 217 209 189 183 187 180 180 178 178 178 178 178 177 174 177 184 184 181 183 188 187 185 183 180 188 195 202 199
185 201 270 299 225 232 222 112 122 132 151 154 207 252 227 210 202 201 207 203 194 187 183 183 181 179 176 174 175 178 180 182 185 188 189 187 189 190 187 191 198 197 197 191
210 172 240 258 263 215 179 181 153 153 218 165 175 251 252 197 197 200 203 201 192 186 181 182 179 175 176 178 180 182 184 186 189 190 189 193 193 191 196 204 206 199 195 193
331 124 173 332 329 351 119 170 154 138 137 163 170 243 264 173 186 209 200 186 179 174 172 173 173 176 180 182 182 184 187 189 187 183 186 194 195 195 203 210 211 205 200 197
85 131 178 212 229 223 226 219 172 141 157 190 199 197 204 185 190 202 181 166 163 162 165 168 172 177 178 178 180 183 187 186 184 183 185 191 197 200 204 208 208 208 203 199
50 91 262 246 245 224 231 232 207 187 183 182 201 188 203 195 190 187 172 155 143 135 144 160 165 168 168 169 174 177 178 179 182 179 190 201 201 202 202 206 213 213 208 210
40 29 343 320 319 299 277 256 229 213 195 183 161 200 205 170 147 140 145 143 143 136 137 137 141 146 153 160 164 161 152 148 142 148 170 172 159 168 190 206 215 222 228 226
35 72 360 288 306 338 270 252 236 226 199 165 181 194 160 140 140 150 143 129 126 125 123 124 131 137 136 135 137 132 129 123 118 119 112 104 109 113 107 103 90 100 197 140
174 157 173 231 355 245 248 296 320 110 79 146 139 143 140 128 111 97 103 112 108 106 103 101 101 101 100 102 101 100 96 96 98 95 90 88 94 94 84 76 72 65 69 71
171 161 165 178 215 265 296 348 5 105 55 100 126 125 119 112 86 61 67 98 104 100 96 91 91 93 93 94 98 97 91 90 90 90 87 87 92 91 85 78 68 63 70 67
46 110 153 176 194 223 235 305 332 84 132 186 139 141 143 126 117 130 104 99 99 95 93 92 87 85 83 82 89 92 89 88 88 91 90 88 91 92 91 86 76 67 77 76
353 10 172 191 214 244 266 299 345 157 207 191 154 144 140 128 129 129 117 104 101 98 95 94 90 86 83 85 89 89 85 85 89 90 88 86 87 92 90 83 74 74 75 72
237 219 199 168 190 238 302 317 177 198 150 143 128 123 113 111 113 115 113 109 106 102 97 96 95 89 81 81 88 87 81 80 79 78 77 75 76 81 85 78 68 74 84 83
224 214 203 198 211 246 263 218 207 134 128 135 125 123 124 122 123 121 117 114 110 106 102 99 100 94 83 78 87 91 85 78 74 69 64 61 57 56 69 81 79 78 86 93
258 200 198 248 259 289 344 23 29 120 136 129 131 131 129 125 123 121 119 117 113 108 105 104 101 98 89 81 82 90 88 78 72 62 50 46 47 41 43 55 76 91 99 101
248 212 198 220 237 22 20 26 115 131 120 118 123 128 131 129 127 126 125 123 119 114 109 105 105 104 100 92 85 83 83 80 71 58 47 42 43 44 39 35 41 66 85 134
233 199 191 212 192 139 139 157 122 113 117 122 124 118 119 122 123 121 120 118 118 115 110 107 107 109 106 98 87 76 77 79 72 55 41 37 38 36 39 42 38 44 56 71
Height
1501 1506 1509 1502 1500 1501 1499 1500 1498 1489 1479 1484 1489 1489 1487 1487 1489 1490 1492 1494 1495 1497 1498 1499 1502 1505 1507 1511 1514 1518 1522 1526 1530 1533 1536 1539 1543 1545 1547 1548 1549 1550 1550 1551
1505 1506 1495 1493 1491 1491 1493 1496 1495 1488 1481 1485 1490 1490 1488 1488 1488 1488 1489 1491 1493 1495 1497 1498 1500 1503 1505 1508 1512 1517 1521 1525 1529 1532 1535 1539 1542 1544 1546 1548 1549 1549 1550 1550
1506 1495 1489 1489 1488 1490 1488 1490 1489 1489 1488 1489 1493 1498 1494 1491 1489 1488 1488 1489 1491 1493 1495 1497 1499 1501 1504 1508 1511 1515 1519 1523 1528 1532 1535 1538 1541 1543 1545 1547 1548 1549 1550 1550
1496 1488 1488 1489 1488 1486 1492 1478 1478 1483 1495 1508 1503 1516 1501 1494 1491 1489 1489 1489 1490 1493 1494 1496 1499 1501 1503 1506 1511 1514 1518 1523 1527 1530 1533 1536 1538 1541 1544 1546 1547 1548 1549 1550
1493 1485 1486 1488 1482 1479 1481 1474 1478 1485 1498 1509 1509 1516 1508 1495 1494 1490 1489 1489 1490 1492 1494 1496 1498 1500 1503 1506 1509 1513 1518 1522 1526 1529 1533 1535 1538 1541 1543 1545 1547 1548 1548 1549
1483 1478 1480 1479 1474 1473 1472 1477 1486 1495 1506 1521 1517 1519 1514 1499 1493 1489 1488 1488 1489 1491 1493 1495 1497 1500 1503 1506 1509 1513 1517 1520 1524 1528 1531 1534 1537 1539 1542 1544 1546 1547 1548 1549
1488 1478 1473 1472 1476 1472 1474 1491 1512 1517 1526 1526 1516 1516 1510 1489 1485 1486 1486 1486 1487 1489 1491 1493 1496 1499 1502 1505 1508 1512 1515 1519 1523 1526 1530 1533 1536 1539 1541 1543 1545 1546 1547 1548
1497 1493 1471 1466 1470 1476 1475 1486 1511 1523 1527 1526 1518 1517 1499 1484 1482 1482 1482 1483 1485 1488 1490 1492 1495 1498 1500 1503 1507 1510 1514 1518 1522 1525 1528 1532 1535 1538 1540 1542 1544 1546 1547 1548
1489 1486 1462 1459 1458 1464 1474 1480 1483 1502 1511 1526 1521 1510 1493 1482 1483 1481 1482 1483 1485 1486 1489 1491 1494 1497 1499 1502 1505 1509 1513 1517 1521 1524 1528 1531 1534 1537 1539 1541 1543 1545 1546 1547
1471 1481 1465 1457 1456 1458 1463 1470 1486 1500 1517 1525 1521 1513 1505 1488 1485 1482 1482 1483 1484 1486 1488 1491 1493 1496 1498 1501 1505 1508 1512 1516 1520 1524 1527 1530 1533 1536 1538 1540 1542 1543 1545 1546
1463 1477 1471 1463 1464 1467 1466 1473 1482 1495 1502 1519 1527 1513 1482 1480 1478 1479 1480 1481 1482 1484 1486 1489 1492 1495 1498 1501 1504 1508 1511 1515 1519 1522 1525 1528 1531 1534 1536 1538 1540 1542 1543 1544
1460 1471 1479 1470 1458 1453 1459 1467 1477 1494 1499 1503 1511 1504 1471 1472 1473 1475 1477 1478 1480 1482 1484 1488 1491 1494 1497 1500 1503 1506 1510 1513 1517 1520 1524 1526 1529 1532 1534 1536 1538 1540 1541 1542
1459 1472 1486 1482 1474 1463 1462 1463 1468 1479 1491 1501 1507 1497 1470 1471 1471 1472 1474 1476 1479 1481 1483 1487 1490 1492 1495 1498 1502 1505 1508 1512 1515 1518 1522 1524 1527 1529 1531 1533 1536 1537 1539 1540
1456 1469 1478 1485 1479 1468 1466 1462 1465 1475 1490 1493 1489 1484 1476 1473 1472 1472 1472 1474 1478 1480 1481 1484 1487 1490 1493 1497 1500 1503 1507 1510 1513 1516 1519 1521 1524 1526 1528 1531 1533 1534 1536 1537
1459 1470 1468 1464 1458 1458 1459 1458 1459 1466 1471 1479 1476 1475 1471 1468 1469 1470 1471 1474 1477 1479 1480 1482 1485 1488 1491 1495 1499 1502 1505 1508 1511 1514 1516 1519 1521 1525 1527 1528 1530 1531 1532 1533
1463 1468 1467 1465 1457 1456 1456 1454 1453 1456 1459 1464 1467 1470 1463 1465 1467 1469 1471 1473 1476 1477 1479 1481 1483 1486 1489 1493 1496 1500 1503 1506 1509 1512 1514 1517 1518 1521 1523 1525 1526 1527 1528 1529
1466 1469 1473 1474 1463 1459 1465 1456 1453 1453 1451 1455 1464 1464 1462 1466 1468 1470 1472 1473 1475 1477 1479 1481 1483 1485 1488 1492 1495 1498 1501 1504 1507 1510 1512 1515 1516 1518 1520 1521 1522 1523 1524 1525
1464 1469 1474 1475 1471 1479 1463 1449 1448 1450 1451 1449 1451 1455 1460 1464 1468 1471 1473 1474 1476 1477 1480 1482 1483 1486 1489 1492 1495 1498 1501 1504 1506 1508 1510 1512 1514 1515 1516 1518 1519 1520 1521 1522
1457 1464 1472 1477 1478 1471 1457 1452 1454 1455 1458 1453 1453 1458 1463 1466 1470 1476 1477 1476 1478 1479 1481 1483 1485 1487 1490 1493 1496 1498 1501 1503 1505 1507 1509 1511 1512 1513 1514 1516 1516 1517 1518 1519
1457 1460 1469 1474 1476 1476 1463 1453 1451 1453 1463 1456 1454 1456 1460 1464 1474 1481 1480 1479 1481 1483 1484 1486 1488 1490 1493 1495 1497 1499 1501 1504 1505 1507 1509 1510 1511 1512 1514 1514 1515 1515 1516 1517
1465 1465 1468 1471 1472 1465 1456 1452 1451 1463 1462 1456 1455 1456 1459 1462 1469 1478 1480 1481 1483 1485 1488 1490 1492 1494 1496 1499 1500 1501 1503 1505 1507 1508 1509 1510 1511 1512 1513 1513 1514 1514 1515 1515
1469 1468 1468 1468 1472 1469 1453 1451 1454 1454 1452 1454 1457 1458 1461 1464 1471 1477 1481 1483 1485 1488 1491 1493 1494 1497 1500 1502 1503 1503 1505 1508 1509 1510 1511 1511 1512 1512 1513 1513 1513 1514 1514 1514
1465 1464 1463 1462 1462 1455 1451 1450 1448 1448 1451 1454 1456 1461 1464 1468 1472 1477 1482 1486 1489 1491 1494 1497 1498 1501 1504 1506 1507 1507 1509 1511 1512 1512 1512 1513 1513 1513 1513 1514 1514 1514 1514 1514
1460 1458 1459 1459 1456 1452 1450 1448 1448 1449 1452 1454 1457 1462 1466 1470 1475 1480 1485 1489 1493 1495 1498 1500 1501 1503 1506 1509 1510 1510 1512 1513 1514 1514 1514 1514 1514 1513 1513 1514 1513 1513 1513 1513
1458 1457 1457 1457 1454 1452 1451 1451 1451 1453 1455 1458 1461 1464 1468 1472 1477 1483 1488 1492 1495 1498 1501 1503 1504 1506 1509 1511 1512 1513 1514 1514 1515 1515 1515 1515 1514 1514 1514 1514 1513 1512 1512 1511
1455 1456 1456 1454 1451 1452 1453 1453 1454 1455 1458 1460 1464 1468 1473 1476 1481 1486 1490 1494 1497 1500 1503 1505 1507 1509 1512 1513 1515 1516 1516 1516 1516 1516 1516 1515 1515 1514 1513 1513 1512 1511 1511 1509